User: anonymous   Login
Location: Unspecified
(0.0000°N, 0.0000°E)
Time: 14:08:29
(UTC+02:00)
Language:

Cosmos 1242 Rocket - Orbit

View from above orbital plane
View from above orbital plane
View from above satellite
View from above satellite

Ground track
Ground track

The orbit data is extracted from the following two-line orbital elements,

1 12155U 81008B   17116.93824228 +.00002042 +00000-0 +67111-4 0  9993
2 12155 081.1607 127.0956 0030462 158.7411 201.5099 15.30587839952787
Epoch (UTC): 26 April 2017 22:31:04
Eccentricity: 0.0030462
inclination: 81.1607°
perigee height: 453 km
apogee height: 495 km
right ascension of ascending node: 127.0956°
argument of perigee: 158.7411°
revolutions per day: 15.30587839
mean anomaly at epoch: 201.5099°
orbit number at epoch: 95278

The dashed part of the orbit path shows where the satellite is in the earth's shadow,  

DLR